Temp
70 71 72 71 71 71 71 71 72 72 72 73 73 72 71 72 72 72 71 71 70 70 69 69 69 69 69 68 68 68 67 68
69 70 71 71 71 70 70 70 70 71 71 71 70 70 71 71 70 70 70 70 70 69 68 68 67 69 68 67 67 67 65 65
69 69 70 72 72 71 70 71 70 70 70 69 68 68 68 68 68 69 69 69 69 69 68 67 66 68 67 67 66 64 64 64
68 69 69 70 72 71 71 71 71 71 70 68 65 64 64 67 68 68 68 68 68 68 67 66 65 64 65 65 64 63 63 63
68 69 69 69 71 70 70 70 69 68 67 65 64 64 65 64 65 65 63 66 60 62 61 59 59 60 60 60 61 62 63 63
68 69 69 69 72 70 70 69 68 66 65 64 64 63 62 62 63 60 59 58 57 56 55 57 58 60 59 59 59 59 60 62
68 69 69 70 70 70 69 69 68 67 65 65 64 62 60 61 61 62 60 55 55 54 55 56 58 59 59 58 57 57 58 60
69 69 69 69 70 69 69 69 68 66 65 65 64 62 60 60 60 60 59 58 54 55 54 55 57 57 56 56 55 55 54 55
69 70 69 68 70 69 69 67 66 66 65 65 63 62 61 60 59 58 58 57 55 54 54 55 56 56 54 54 53 54 53 52
70 71 68 68 69 68 67 67 66 66 65 64 64 63 62 60 58 57 56 57 57 56 54 53 54 54 52 52 52 52 51 51
69 68 67 68 68 67 66 65 65 65 65 63 63 63 62 60 59 58 58 58 58 58 57 55 54 53 53 51 52 52 52 52
69 68 67 68 67 65 64 63 64 63 63 63 63 62 61 60 58 57 58 59 58 59 56 55 55 55 54 51 50 50 48 47
67 66 66 64 63 62 61 60 61 60 61 62 62 62 60 60 57 57 58 58 58 57 56 54 52 51 50 47 47 46 48 47
63 65 63 64 64 62 60 61 59 60 60 61 61 61 61 59 58 57 57 56 57 57 55 51 51 54 49 47 42 44 43 46
62 61 61 61 61 58 57 57 56 56 57 58 59 59 59 59 59 58 57 57 56 56 55 54 49 50 52 44 37 36 39 41
61 61 60 60 59 58 57 57 56 56 57 57 57 57 57 57 57 57 57 57 57 57 57 55 53 49 50 48 44 43 36 37
56 58 59 60 58 58 57 56 57 54 55 55 55 55 56 56 56 56 56 56 56 56 55 54 53 51 50 44 42 44 40 40
53 56 57 56 57 57 56 56 56 54 55 54 54 55 55 56 55 55 54 56 56 56 56 55 52 52 52 48 44 44 40 38
54 57 59 56 55 55 56 56 56 55 54 54 54 53 53 54 54 54 54 54 56 56 55 54 52 52 51 48 48 48 47 42
56 56 56 56 54 55 55 56 55 56 55 54 54 54 54 55 54 55 54 54 53 55 55 54 53 52 50 51 48 47 47 46
MSLP
1008.58 1008.92 1009.37 1009.70 1009.88 1010.14 1010.51 1010.89 1011.45 1012.16 1012.66 1012.94 1012.89 1013.30 1013.94 1014.28 1014.50 1015.09 1015.58 1016.37 1017.00 1017.11 1017.33 1017.48 1017.10 1017.14 1017.73 1018.12 1018.48 1018.80 1019.13 1019.72
1008.56 1008.81 1009.25 1009.51 1009.75 1010.23 1010.58 1010.86 1011.38 1011.72 1012.46 1013.16 1013.46 1013.57 1013.93 1014.36 1014.70 1015.08 1015.57 1016.09 1016.74 1016.85 1017.69 1017.86 1017.53 1017.35 1017.74 1018.40 1018.92 1019.24 1019.64 1020.04
1008.48 1008.88 1009.21 1009.55 1009.92 1010.30 1010.79 1011.22 1011.56 1011.94 1012.59 1012.76 1013.66 1014.03 1014.20 1014.42 1014.92 1015.43 1015.75 1016.16 1016.64 1017.10 1017.45 1017.61 1017.79 1017.96 1018.21 1018.41 1019.00 1019.68 1019.87 1020.16
1007.93 1008.48 1009.03 1009.52 1009.76 1010.08 1010.53 1010.86 1011.17 1011.74 1012.24 1012.98 1013.25 1014.11 1014.35 1014.44 1014.84 1015.29 1015.57 1016.54 1016.99 1017.35 1017.75 1017.81 1017.77 1018.23 1018.63 1019.10 1019.50 1019.78 1019.94 1020.42
1007.39 1007.87 1008.50 1009.15 1009.67 1010.00 1010.28 1010.54 1010.86 1011.11 1011.69 1012.27 1013.26 1013.75 1014.34 1014.71 1014.82 1015.51 1016.04 1016.24 1016.96 1017.60 1018.06 1018.23 1018.29 1018.58 1019.00 1019.53 1020.07 1020.32 1020.46 1020.71
1007.00 1007.48 1007.84 1008.36 1008.87 1009.59 1010.02 1010.43 1010.65 1010.96 1011.60 1012.28 1012.58 1013.53 1014.16 1014.49 1014.77 1015.42 1016.19 1016.51 1016.95 1017.28 1018.16 1018.63 1018.77 1018.80 1019.00 1019.68 1020.44 1020.89 1020.98 1021.38
1006.15 1006.80 1007.20 1007.54 1008.17 1009.14 1009.60 1010.12 1010.57 1010.95 1011.37 1011.75 1012.26 1013.03 1013.85 1014.45 1014.56 1015.04 1015.70 1016.45 1017.05 1017.40 1018.00 1018.45 1019.20 1019.54 1019.79 1019.87 1020.66 1021.21 1021.52 1021.74
1005.96 1006.37 1006.89 1007.37 1007.57 1008.11 1008.83 1009.22 1009.70 1010.42 1010.96 1011.31 1011.86 1012.29 1012.92 1013.80 1014.37 1014.59 1015.31 1015.89 1016.78 1017.22 1017.73 1018.51 1019.16 1019.96 1020.51 1020.73 1021.06 1021.52 1022.34 1022.44
1004.96 1005.38 1006.13 1006.82 1007.14 1007.52 1007.92 1008.71 1009.46 1010.09 1010.17 1010.67 1011.21 1011.79 1012.49 1013.09 1013.81 1014.37 1014.74 1015.63 1016.46 1017.31 1017.87 1018.41 1019.22 1020.10 1020.96 1021.33 1021.58 1022.07 1022.66 1023.10
1003.75 1004.45 1004.93 1005.58 1006.23 1007.03 1007.62 1008.04 1008.94 1009.14 1009.63 1009.71 1010.65 1011.06 1011.92 1012.51 1013.44 1013.98 1014.75 1015.41 1016.19 1017.20 1017.77 1018.51 1019.31 1020.17 1021.10 1021.56 1022.01 1022.42 1023.18 1023.44
1002.90 1003.79 1004.38 1005.01 1005.95 1006.88 1007.00 1007.45 1008.06 1008.52 1008.80 1008.40 1009.82 1010.41 1011.37 1011.84 1012.84 1013.64 1014.36 1014.85 1015.64 1016.81 1017.90 1018.04 1019.08 1020.24 1021.15 1021.69 1022.03 1022.48 1023.38 1023.98
1002.29 1002.85 1003.75 1004.81 1005.74 1006.64 1006.91 1007.34 1007.40 1008.24 1009.23 1008.89 1008.91 1009.64 1010.26 1011.13 1012.10 1013.09 1013.89 1014.60 1015.41 1016.44 1017.46 1018.31 1018.90 1019.91 1021.39 1022.19 1022.67 1023.13 1023.65 1024.27
1002.19 1002.81 1003.72 1004.83 1006.03 1006.67 1007.12 1006.88 1007.59 1007.78 1008.45 1008.61 1008.75 1009.21 1009.52 1010.60 1011.15 1012.52 1013.57 1013.83 1014.73 1015.83 1016.76 1017.94 1019.12 1019.98 1021.03 1022.95 1023.67 1024.00 1024.06 1024.48
1003.72 1004.14 1003.88 1004.72 1005.42 1006.39 1006.80 1006.62 1007.10 1007.68 1008.06 1008.57 1008.26 1008.97 1008.82 1009.45 1009.99 1011.61 1012.80 1014.09 1014.51 1015.61 1016.14 1017.77 1019.24 1019.17 1020.49 1022.09 1024.04 1025.00 1024.78 1024.88
1005.10 1005.24 1005.55 1005.59 1005.61 1006.13 1006.79 1007.24 1007.09 1007.59 1007.80 1008.10 1008.50 1008.70 1009.15 1008.89 1009.69 1010.51 1012.02 1013.04 1013.86 1014.69 1015.66 1016.23 1017.86 1018.82 1019.39 1020.15 1023.13 1023.95 1024.61 1025.38
1005.52 1005.37 1006.00 1006.32 1006.69 1006.63 1006.34 1006.35 1006.89 1007.14 1007.45 1007.41 1008.34 1008.66 1008.42 1009.05 1008.78 1010.19 1011.04 1011.74 1013.15 1013.66 1014.61 1015.54 1016.57 1017.54 1019.35 1019.33 1019.82 1020.97 1023.23 1025.06
1006.16 1006.39 1006.17 1006.36 1006.73 1006.83 1007.00 1006.97 1006.62 1007.39 1007.73 1007.36 1007.80 1008.36 1008.52 1009.49 1008.88 1010.27 1010.63 1011.06 1011.84 1012.48 1013.65 1014.60 1015.53 1016.60 1017.72 1018.91 1019.75 1020.52 1021.31 1022.35
1006.49 1006.46 1006.14 1006.14 1006.28 1006.73 1007.09 1007.20 1007.19 1007.16 1007.28 1007.31 1007.45 1007.82 1008.58 1009.10 1009.74 1010.30 1009.48 1009.99 1010.92 1011.48 1012.49 1013.54 1014.50 1015.66 1016.65 1017.59 1018.59 1019.65 1020.64 1021.36
1006.60 1006.62 1006.33 1005.91 1005.87 1006.05 1006.59 1006.37 1006.55 1006.92 1006.07 1006.75 1007.17 1007.40 1007.84 1008.10 1008.60 1009.29 1009.22 1009.61 1010.49 1010.27 1011.72 1012.31 1013.68 1014.56 1015.74 1016.83 1017.73 1018.72 1019.72 1020.50
1006.77 1007.38 1006.58 1005.82 1005.83 1005.76 1005.97 1005.79 1005.58 1005.46 1005.80 1006.25 1006.50 1006.77 1006.93 1007.42 1008.03 1008.69 1009.13 1009.34 1010.23 1011.27 1010.42 1011.35 1012.56 1013.94 1015.02 1016.01 1017.17 1018.10 1018.98 1019.63
Wind_Speed
9 10 12 13 14 17 17 18 16 15 15 16 17 17 17 17 18 18 17 14 9 8 10 13 13 15 21 20 20 19 13 10
10 9 10 10 11 15 16 16 16 16 16 14 16 17 17 18 17 18 17 16 12 11 11 13 15 22 23 20 19 18 11 10
10 10 9 11 10 11 14 15 16 16 16 19 14 8 10 13 13 15 15 14 12 11 13 16 17 22 22 21 16 7 9 7
12 12 12 11 9 10 10 11 11 11 12 12 8 7 6 10 14 16 16 12 9 8 12 17 15 9 10 13 6 8 8 7
13 13 13 13 10 8 6 6 6 8 13 12 9 8 7 5 6 6 5 11 5 4 5 3 7 6 7 7 7 7 6 6
14 14 14 15 10 9 9 7 7 7 10 11 10 6 7 7 6 8 5 4 5 5 4 4 5 9 10 10 8 7 5 5
18 16 16 15 15 10 9 9 8 9 9 11 10 9 8 7 8 8 8 5 4 5 5 6 7 9 9 11 10 9 8 6
15 17 14 15 15 15 12 11 10 9 10 11 13 11 10 9 9 9 9 7 5 5 6 7 8 8 9 10 10 9 7 8
18 17 15 15 17 15 12 10 11 11 10 13 14 13 12 11 9 8 8 7 8 5 7 8 9 8 10 8 9 9 8 8
19 16 18 17 16 13 10 11 11 11 11 11 15 14 14 11 9 9 7 8 8 7 8 9 9 9 9 7 7 8 9 8
19 17 18 18 15 12 12 12 11 11 12 13 14 13 14 11 10 9 11 9 9 10 8 11 11 9 9 8 8 8 7 6
18 16 15 15 10 8 7 8 8 7 7 10 15 12 15 13 10 11 11 10 9 9 11 8 10 11 10 8 6 6 6 6
15 16 13 10 8 8 5 7 5 6 7 12 14 14 17 14 12 13 12 13 13 12 13 14 10 11 10 8 6 5 7 6
3 5 9 9 8 6 2 6 4 5 5 8 12 13 17 17 18 16 14 9 12 13 15 10 8 11 9 7 5 2 3 4
7 7 3 1 7 6 3 4 4 2 4 4 7 10 13 16 16 16 15 13 12 16 16 17 13 8 17 8 5 5 5 2
4 3 1 1 1 4 6 7 5 4 7 6 6 7 9 14 12 16 18 15 15 15 14 13 13 15 11 2 4 7 6 5
6 1 4 4 6 4 4 5 3 3 5 9 10 9 8 8 14 14 14 14 16 17 17 16 12 12 12 4 3 3 2 6
2 2 6 6 7 6 6 7 6 5 7 7 7 7 9 12 9 10 11 15 17 16 17 17 15 12 11 6 6 7 5 5
4 4 5 7 8 8 11 12 10 9 9 8 7 6 7 12 14 13 11 11 13 18 17 17 17 15 17 8 8 6 6 4
1 7 7 4 6 8 10 12 9 9 9 7 7 9 10 14 15 15 15 15 11 12 13 13 16 14 17 13 8 6 6 7
Wind_Direction
160 166 171 163 160 160 162 163 162 162 157 155 150 139 137 136 130 127 127 129 143 149 113 107 102 108 119 111 111 107 103 98
166 167 172 171 168 163 163 161 158 154 153 147 141 141 137 133 131 130 131 138 159 151 118 108 100 116 116 109 106 103 105 100
168 169 171 175 170 167 162 161 156 149 147 144 144 147 137 132 132 132 135 148 159 161 132 118 107 116 114 115 115 114 112 106
174 171 169 170 173 172 172 171 167 163 156 152 138 147 149 143 140 137 141 146 162 160 137 123 113 115 113 109 108 115 108 113
178 174 172 171 177 177 178 174 167 160 155 152 147 141 145 145 132 133 138 144 151 150 134 113 118 117 105 102 102 104 105 108
178 177 175 175 175 180 181 180 171 163 160 155 152 149 155 158 147 145 142 149 164 145 126 115 110 116 119 110 104 100 99 98
186 177 181 179 177 181 182 184 181 170 164 165 159 156 157 169 159 158 158 151 166 149 132 118 112 112 111 112 104 97 92 94
181 190 181 182 182 179 181 182 178 173 172 176 169 163 168 176 168 164 158 161 158 138 133 124 117 114 104 104 101 91 83 86
192 187 182 181 189 183 182 175 171 178 179 176 178 171 173 170 167 162 163 153 142 119 106 116 114 116 111 106 104 99 97 88
193 188 187 183 183 176 181 176 182 185 183 175 187 182 180 166 164 167 160 150 144 134 134 122 124 128 130 127 117 107 103 100
185 188 186 182 175 188 186 185 193 193 195 173 187 180 178 172 170 160 161 161 151 146 143 137 135 132 135 127 127 122 119 109
184 185 181 172 168 172 179 184 184 177 210 190 177 184 173 168 159 154 165 161 154 148 136 130 136 132 118 106 100 102 112 108
183 175 163 148 162 171 177 182 193 183 193 194 185 185 168 173 152 159 176 167 163 156 143 138 139 131 115 88 62 71 118 120
83 143 137 160 168 177 189 162 175 191 182 218 190 196 182 174 160 164 169 166 159 161 151 140 140 157 139 115 133 64 36 125
38 32 3 134 166 127 105 70 65 114 176 177 211 204 193 178 174 171 172 170 173 170 167 165 162 178 170 132 142 185 140 95
64 83 260 81 276 253 193 187 173 182 195 165 212 209 220 183 173 185 178 169 181 176 173 175 167 173 189 138 115 147 163 149
39 268 238 215 212 237 262 266 178 181 197 182 178 175 210 214 178 186 188 179 175 172 177 176 178 170 184 136 98 123 110 139
16 165 245 216 191 212 232 262 262 193 200 204 201 183 181 195 194 203 208 182 182 180 181 180 176 179 187 158 157 164 164 144
284 257 290 226 208 199 213 217 215 238 204 197 191 199 191 196 192 192 205 186 208 177 184 175 182 180 184 173 159 169 154 125
23 328 319 246 238 238 228 224 216 214 204 199 208 209 206 186 191 194 190 176 206 234 177 180 180 183 181 181 166 160 158 153